This demonstration page uses our WeatherBlox Daily Observations layout. Learn more.

41.55636, -103.73856

Hourly Observations for March 15, 2019

Temp ( °F °C ) Dew Point ( °F °C ) Humidity (%) Winds ( mph kmh ) Pressure ( in mb ) Visibility ( mi km ) Precip ( " mm )
12:53 am 00:53 Clear 18 -7.8 16 -8.9 92 92 WSW 5 7 30.39 1029 10 16.09344 0 0
1:53 am 01:53 Mostly Clear 18 -7.8 15 -9.4 88 88 N 3 6 30.39 1029 10 16.09344 0 0
2:53 am 02:53 Clear 17 -8.3 14 -10 88 88 NNW 6 9 30.39 1029 10 16.09344 0 0
3:53 am 03:53 Clear 17 -8.3 15 -9.4 92 92 NNW 6 9 30.39 1029 10 16.09344 0 0
4:53 am 04:53 Clear 14 -10 13 -10.6 95 95 NNW 8 13 30.42 1030 10 16.09344 0 0
5:53 am 05:53 Clear 16 -8.9 14 -10 92 92 NW 8 13 30.42 1030 10 16.09344 0 0
6:53 am 06:53 Clear 15 -9.4 12 -11.1 88 88 NW 8 13 30.45 1031 10 16.09344 0 0
7:53 am 07:53 Sunny 15 -9.4 13 -10.6 91 91 NW 8 13 30.45 1031 10 16.09344 0 0
8:53 am 08:53 Sunny 20 -6.7 16 -8.9 85 85 NNW 5 7 30.45 1031 10 16.09344 0 0
9:53 am 09:53 Sunny 24 -4.4 17 -8.3 75 75 NW 6 9 30.45 1031 10 16.09344 0 0
10:53 am 10:53 Sunny 30 -1.1 20 -6.7 66 66 W 9 15 30.42 1030 10 16.09344 0 0
11:53 am 11:53 Sunny 32 0 21 -6.1 64 64 NW 10 17 30.42 1030 10 16.09344 0 0
12:53 pm 12:53 Sunny 35 1.7 23 -5 61 61 NNW 6 9 30.42 1030 10 16.09344 0 0
1:53 pm 13:53 Sunny 37 2.8 24 -4.4 59 59 W 12 19 30.39 1029 10 16.09344 0 0
2:53 pm 14:53 Sunny 39 3.9 24 -4.4 55 55 W 12 19 30.36 1028 10 16.09344 0 0
3:53 pm 15:53 Sunny 40 4.4 24 -4.4 53 53 WNW 12 19 30.36 1028 10 16.09344 0 0
4:53 pm 16:53 Sunny 40 4.4 25 -3.9 55 55 W 13 20 30.36 1028 10 16.09344 0 0
5:53 pm 17:53 Sunny 40 4.4 26 -3.3 58 58 WNW 6 9 30.33 1027 10 16.09344 0 0
6:53 pm 18:53 Sunny 34 1.1 27 -2.8 76 76 WSW 6 9 30.36 1028 10 16.09344 0 0
7:53 pm 19:53 Clear 34 1.1 25 -3.9 70 70 W 6 9 30.36 1028 10 16.09344 0 0
8:53 pm 20:53 Clear 29 -1.7 23 -5 78 78 NW 6 9 30.39 1029 10 16.09344 0 0
9:53 pm 21:53 Clear 28 -2.2 22 -5.6 78 78 NW 6 9 30.39 1029 10 16.09344 0 0
10:53 pm 22:53 Clear 26 -3.3 20 -6.7 78 78 W 15 24 30.39 1029 10 16.09344 0 0
11:53 pm 23:53 Clear 24 -4.4 19 -7.2 81 81 NNW 9 15 30.39 1029 10 16.09344 0 0

Powered by AerisWeather